Regional Weather Roundup
Issued by NWS

Home | Current Version | Previous Version | Graphics & Text | Print | Product List | Glossary On
Versions: 1 2 3 4 5 6 7 8 9 10 11 12 13 14 15 16 17 18 19 20 21 22 23 24 25 26 27 28 29 30 31 32 33 34 35 36 37 38 39 40 41 42 43 44 45 46 47 48 49 50
000
ASUS43 KLMK 230702
RWRKY
KENTUCKY REGIONAL WEATHER ROUNDUP
NATIONAL WEATHER SERVICE LOUISVILLE KY
200 AM EST FRI FEB 23 2018

NOTE "FAIR" INDICATES FEW OR NO CLOUDS BELOW 12,000 FEET
WITH NO SIGNIFICANT WEATHER AND/OR OBSTRUCTIONS TO VISIBILITY.

KYZ001>023-026-027-061>063-070>075-230800-
WESTERN AND SOUTH CENTRAL KENTUCKY

CITY           SKY/WX    TMP DP  RH WIND       PRES   REMARKS
PADUCAH        RAIN      53  52  96 S6        30.22S FOG
HENDERSON      LGT RAIN  50  49  96 SE13      30.23F
OWENSBORO      HVY RAIN  50  49  96 NE7       30.27S
HOPKINSVILLE   MOCLDY    58  58 100 SE5       30.23S
BOWLING GREEN  CLOUDY    58  58 100 CALM      30.26F FOG
GLASGOW        NOT AVBL
$$

KYZ024-025-028>034-038-045-046-053-230800-
NORTH CENTRAL KENTUCKY

CITY           SKY/WX    TMP DP  RH WIND       PRES   REMARKS
LOUISVILLE/SDF CLOUDY    50  49  96 NE3       30.30F VSB 1
LOUISVILLE/LOU CLOUDY    49  49 100 NE3       30.30F FOG
FORT KNOX      FOG       49  49 100 NE5       30.29F VSB 1/2
$$

KYZ035>037-039>044-047>052-055>060-089>105-230800-
NORTHEAST KENTUCKY

CITY           SKY/WX    TMP DP  RH WIND       PRES   REMARKS
LEXINGTON      FOG       54  52  93 SE5       30.31F VSB 3/4
COVINGTON      DRIZZLE   46  46 100 SE9       30.31F FOG
FRANKFORT      CLOUDY    50  47  89 E3        30.30F FOG
$$

KYZ054-064>069-076>088-106>120-230800-
SOUTHEAST KENTUCKY

CITY           SKY/WX    TMP DP  RH WIND       PRES   REMARKS
JACKSON        CLOUDY    54  52  93 E3        30.34F
LONDON         FOG       55  54  96 CALM      30.34S VSB 3/4
SOMERSET       NOT AVBL
MIDDLESBORO    FAIR      53  53 100 CALM      30.36F
MONTICELLO     NOT AVBL
$$




USA.gov is the U.S. government's official web portal to all federal, state and local government web resources and services.